Simultaneous Nadir Overpasses (SNOs) Predictions

Prediction of SNOs between GOES-17 and METOP-B Satellite Orbit:

Table of predicted SNOs for the next 14.0 days since TLE Epoch: 6/13/2025
Index Date Time (GOES-17) GOES-17 Lat,Lon METOP-B Lat,Lon Distance(km) Time Diff (sec)
1 06/15/2025 04:02:10 -0.01,-104.37 0.01,-104.35 3.24 80
2 06/17/2025 16:03:07 0.01,-104.44 -0.09,-103.97 54.02 80
3 06/19/2025 04:22:09 -0.01,-104.37 -0.96,-108.59 480.66 80
4 06/20/2025 03:58:52 -0.01,-104.37 0.16,-103.62 86.25 80
5 06/21/2025 16:17:46 0.01,-104.44 0.87,-108.21 430.35 80
6 06/22/2025 15:59:49 0.00,-104.43 -0.26,-103.24 136.57 80
7 06/24/2025 04:18:51 0.00,-104.36 -0.78,-107.86 398.42 80
8 06/25/2025 03:55:33 0.00,-104.36 0.35,-102.89 168.17 80
9 06/26/2025 16:14:28 -0.00,-104.42 0.67,-107.48 348.90 80
10 06/27/2025 15:56:29 -0.00,-104.42 -0.41,-102.50 218.30 80
